Погода в Ивановке

Россия / Республика Башкортостан     52°45′53″N   55°43′46″E
темп.,
°C
ветер,
м/с
пор.,
м/с
влажн.,
%
обл.,
%
осадки,
мм/ч
давл.,
гПа
погр.,
м
4 марта, чт
чт423:00−7зсз3495100 0.2 100342
02:00−10зсз349760 0.0 100467
05:00−12з349873 0.1 100586
08:00−11з4896100 0.3 1007224
11:00−10зюз469691 0.3 1008262
14:00−8юз61093100 0.1 1008530
17:00−7ююз81395100 0.2 1007607
20:00−6ююз101794100 0.8 1006832
5 марта, пт
пт523:00−4юз101795100 2.7 1004916
02:00−1юз111794100 0.6 1003953
05:00−2юз101595100 1.1 1004923
08:00−3юз91595100 0.8 1005757
11:00−3юз101596100 2.2 1006782
14:00−2юз91396100 2.4 1006899
17:00−1юз81397100 4.5 1006843
20:000юз81498100 2.4 1006743
6 марта, сб
сб623:000зюз81498100 4.3 1007689
02:00−5ссв5996100 1.9 1009287
05:00−8с3696100 2.1 1012156
08:00−11ссв2393100 0.0 101334
11:00−8св2288100 0.0 1012134
14:00−6св4595100 0.5 1010260
17:00−6ссв5895100 2.3 1007377
20:00−7ссв51095100 1.2 1006283
7 марта, вс
вс723:00−8с61294100 2.2 1006364
02:00−11ссз51194100 0.2 1007271
05:00−15ссз338890 0.2 101036
08:00−18сз228327 0.0 101220
11:00−13зсз359243 0.0 1013262
14:00−11з5790100 0.1 1014489
17:00−13з479191 0.1 1016423
20:00−19юз239929 0.0 101720
8 марта, пн
пн823:00−20ю449822 0.0 101855
02:00−17ю5129962 0.0 1016248
05:00−14ю8159581 0.1 1013433
08:00−10ю101890100 0.6 1011640
11:00−7ююз121891100 0.8 1009986
14:00−5ююз121892100 0.4 10081212
17:00−4юз111794100 2.1 10081220
20:00−5ююз101694100 0.9 1007910